QPF
0.00 0.00 0.00 0.00 0.00 0.00 0.00 0.00 0.00 0.00 0.00 0.00 0.00 0.00 0.00 0.00 0.00 0.00 0.00 0.00 0.00 0.00 0.00 0.00 0.00 0.00 0.00 0.00 0.00 0.00 0.00 0.00 0.00 0.00 0.00 0.00 0.00 0.00 0.00 0.00 0.00 0.00 0.00 0.00 0.00
0.00 0.00 0.00 0.00 0.00 0.00 0.00 0.00 0.00 0.00 0.00 0.00 0.00 0.00 0.00 0.00 0.00 0.00 0.00 0.00 0.00 0.00 0.00 0.00 0.00 0.00 0.00 0.00 0.00 0.00 0.00 0.00 0.00 0.00 0.00 0.00 0.00 0.00 0.00 0.00 0.00 0.00 0.00 0.00 0.00
0.00 0.00 0.00 0.00 0.00 0.00 0.00 0.00 0.00 0.00 0.00 0.00 0.00 0.00 0.00 0.00 0.00 0.00 0.00 0.00 0.00 0.00 0.00 0.00 0.00 0.00 0.00 0.00 0.00 0.00 0.00 0.00 0.00 0.00 0.00 0.00 0.00 0.00 0.00 0.00 0.00 0.00 0.00 0.00 0.00
0.00 0.00 0.00 0.00 0.00 0.00 0.00 0.00 0.00 0.00 0.00 0.00 0.00 0.00 0.00 0.00 0.00 0.00 0.00 0.00 0.00 0.00 0.00 0.00 0.00 0.00 0.00 0.00 0.00 0.00 0.00 0.00 0.00 0.00 0.00 0.00 0.00 0.00 0.00 0.00 0.00 0.00 0.00 0.00 0.00
0.00 0.00 0.00 0.00 0.00 0.00 0.00 0.00 0.00 0.00 0.00 0.00 0.00 0.00 0.00 0.00 0.00 0.00 0.00 0.00 0.00 0.00 0.00 0.00 0.00 0.00 0.00 0.00 0.00 0.00 0.00 0.00 0.00 0.00 0.00 0.00 0.00 0.00 0.00 0.00 0.00 0.00 0.00 0.00 0.00
0.00 0.00 0.00 0.00 0.00 0.00 0.00 0.00 0.00 0.00 0.00 0.00 0.00 0.00 0.00 0.00 0.00 0.00 0.00 0.00 0.00 0.00 0.00 0.00 0.00 0.00 0.00 0.00 0.00 0.00 0.00 0.00 0.00 0.00 0.00 0.00 0.00 0.00 0.00 0.00 0.00 0.00 0.00 0.00 0.00
0.00 0.00 0.00 0.00 0.00 0.00 0.00 0.00 0.00 0.00 0.00 0.00 0.00 0.00 0.00 0.00 0.00 0.00 0.00 0.00 0.00 0.00 0.00 0.00 0.00 0.00 0.00 0.00 0.00 0.00 0.00 0.00 0.00 0.00 0.00 0.00 0.00 0.00 0.00 0.00 0.00 0.00 0.00 0.00 0.00
0.00 0.00 0.00 0.00 0.00 0.00 0.00 0.00 0.00 0.00 0.00 0.00 0.00 0.00 0.00 0.00 0.00 0.00 0.00 0.00 0.00 0.00 0.00 0.00 0.00 0.00 0.00 0.00 0.00 0.00 0.00 0.00 0.00 0.00 0.00 0.00 0.00 0.00 0.00 0.00 0.00 0.00 0.00 0.00 0.00
0.00 0.00 0.00 0.00 0.00 0.00 0.00 0.00 0.00 0.00 0.00 0.00 0.00 0.00 0.00 0.00 0.00 0.00 0.00 0.00 0.00 0.00 0.00 0.00 0.00 0.00 0.00 0.00 0.00 0.00 0.00 0.00 0.00 0.00 0.00 0.00 0.00 0.00 0.00 0.00 0.00 0.00 0.00 0.00 0.00
0.00 0.00 0.00 0.00 0.00 0.00 0.00 0.00 0.00 0.00 0.00 0.00 0.00 0.00 0.00 0.00 0.00 0.00 0.00 0.00 0.00 0.00 0.00 0.00 0.00 0.00 0.00 0.00 0.00 0.00 0.00 0.00 0.00 0.00 0.00 0.00 0.00 0.00 0.00 0.00 0.00 0.00 0.00 0.00 0.00
0.00 0.00 0.00 0.00 0.00 0.00 0.00 0.00 0.00 0.00 0.00 0.00 0.00 0.00 0.00 0.00 0.00 0.00 0.00 0.00 0.00 0.00 0.00 0.00 0.00 0.00 0.00 0.00 0.00 0.00 0.00 0.00 0.00 0.00 0.00 0.00 0.00 0.00 0.00 0.00 0.00 0.00 0.00 0.00 0.00
0.00 0.00 0.00 0.00 0.00 0.00 0.00 0.00 0.00 0.00 0.00 0.00 0.00 0.00 0.00 0.00 0.00 0.00 0.00 0.00 0.00 0.00 0.00 0.00 0.00 0.00 0.00 0.00 0.00 0.00 0.00 0.00 0.00 0.00 0.00 0.00 0.00 0.00 0.00 0.00 0.00 0.00 0.00 0.00 0.00
0.00 0.00 0.00 0.00 0.00 0.00 0.00 0.00 0.00 0.00 0.00 0.00 0.00 0.00 0.00 0.00 0.00 0.00 0.00 0.00 0.00 0.00 0.00 0.00 0.00 0.00 0.00 0.00 0.00 0.00 0.00 0.00 0.00 0.00 0.00 0.00 0.00 0.00 0.00 0.00 0.00 0.00 0.00 0.00 0.00
0.00 0.00 0.00 0.00 0.00 0.00 0.00 0.00 0.00 0.00 0.00 0.00 0.00 0.00 0.00 0.00 0.00 0.00 0.00 0.00 0.00 0.00 0.00 0.00 0.00 0.00 0.00 0.00 0.00 0.00 0.00 0.00 0.00 0.00 0.00 0.00 0.00 0.00 0.00 0.00 0.00 0.00 0.00 0.00 0.00
0.00 0.00 0.00 0.00 0.00 0.00 0.00 0.00 0.00 0.00 0.00 0.00 0.00 0.00 0.00 0.00 0.00 0.00 0.00 0.00 0.00 0.00 0.00 0.00 0.00 0.00 0.00 0.00 0.00 0.00 0.00 0.00 0.00 0.00 0.00 0.00 0.00 0.00 0.00 0.00 0.00 0.00 0.00 0.00 0.00
0.00 0.00 0.00 0.00 0.00 0.00 0.00 0.00 0.00 0.00 0.00 0.00 0.00 0.00 0.00 0.00 0.00 0.00 0.00 0.00 0.00 0.00 0.00 0.00 0.00 0.00 0.00 0.00 0.00 0.00 0.00 0.00 0.00 0.00 0.00 0.00 0.00 0.00 0.00 0.00 0.00 0.00 0.00 0.00 0.00
0.00 0.00 0.00 0.00 0.00 0.00 0.00 0.00 0.00 0.00 0.00 0.00 0.00 0.00 0.00 0.00 0.00 0.00 0.00 0.00 0.00 0.00 0.00 0.00 0.00 0.00 0.00 0.00 0.00 0.00 0.00 0.00 0.00 0.00 0.00 0.00 0.00 0.00 0.00 0.00 0.00 0.00 0.00 0.00 0.00
0.00 0.00 0.00 0.00 0.00 0.00 0.00 0.00 0.00 0.00 0.00 0.00 0.00 0.00 0.00 0.00 0.00 0.00 0.00 0.00 0.00 0.00 0.00 0.00 0.00 0.00 0.00 0.00 0.00 0.00 0.00 0.00 0.00 0.00 0.00 0.00 0.00 0.00 0.00 0.00 0.00 0.00 0.00 0.00 0.00
0.00 0.00 0.00 0.00 0.00 0.00 0.00 0.00 0.00 0.00 0.00 0.00 0.00 0.00 0.00 0.00 0.00 0.00 0.00 0.00 0.00 0.00 0.00 0.00 0.00 0.00 0.00 0.00 0.00 0.00 0.00 0.00 0.00 0.00 0.00 0.00 0.00 0.00 0.00 0.00 0.00 0.00 0.00 0.00 0.00
0.00 0.00 0.00 0.00 0.00 0.00 0.00 0.00 0.00 0.00 0.00 0.00 0.00 0.00 0.00 0.00 0.00 0.00 0.00 0.00 0.00 0.00 0.00 0.00 0.00 0.00 0.00 0.00 0.00 0.00 0.00 0.00 0.00 0.00 0.00 0.00 0.00 0.00 0.00 0.00 0.00 0.00 0.00 0.00 0.00
0.00 0.00 0.00 0.00 0.00 0.00 0.00 0.00 0.00 0.00 0.00 0.00 0.00 0.00 0.00 0.00 0.00 0.00 0.00 0.00 0.00 0.00 0.00 0.00 0.00 0.00 0.00 0.00 0.00 0.00 0.00 0.00 0.00 0.00 0.00 0.00 0.00 0.00 0.00 0.00 0.00 0.00 0.00 0.00 0.00
0.00 0.00 0.00 0.00 0.00 0.00 0.00 0.00 0.00 0.00 0.00 0.00 0.00 0.00 0.00 0.00 0.00 0.00 0.00 0.00 0.00 0.00 0.00 0.00 0.00 0.00 0.00 0.00 0.00 0.00 0.00 0.00 0.00 0.00 0.00 0.00 0.00 0.00 0.00 0.00 0.00 0.00 0.00 0.00 0.00
0.00 0.00 0.00 0.00 0.00 0.00 0.00 0.00 0.00 0.00 0.00 0.00 0.00 0.00 0.00 0.00 0.00 0.00 0.00 0.00 0.00 0.00 0.00 0.00 0.00 0.00 0.00 0.00 0.00 0.00 0.00 0.00 0.00 0.00 0.00 0.00 0.00 0.00 0.00 0.00 0.00 0.00 0.00 0.00 0.00
0.02 0.01 0.00 0.00 0.00 0.00 0.00 0.00 0.00 0.00 0.00 0.00 0.00 0.00 0.00 0.00 0.00 0.00 0.00 0.00 0.00 0.00 0.00 0.00 0.00 0.00 0.00 0.00 0.00 0.00 0.00 0.00 0.00 0.00 0.00 0.00 0.00 0.00 0.00 0.00 0.00 0.00 0.00 0.00 0.00
0.08 0.05 0.01 0.00 0.00 0.00 0.00 0.00 0.00 0.00 0.00 0.00 0.00 0.00 0.00 0.00 0.00 0.00 0.00 0.00 0.00 0.00 0.00 0.00 0.00 0.00 0.00 0.00 0.00 0.00 0.00 0.00 0.00 0.00 0.00 0.00 0.00 0.00 0.00 0.00 0.00 0.00 0.00 0.00 0.00
0.14 0.08 0.04 0.03 0.02 0.02 0.02 0.01 0.01 0.00 0.00 0.00 0.00 0.00 0.00 0.00 0.00 0.00 0.00 0.00 0.00 0.00 0.00 0.00 0.00 0.00 0.00 0.00 0.00 0.00 0.00 0.00 0.00 0.00 0.00 0.00 0.00 0.00 0.00 0.00 0.00 0.00 0.00 0.00 0.00
0.11 0.09 0.12 0.13 0.03 0.03 0.03 0.02 0.02 0.01 0.01 0.00 0.00 0.00 0.00 0.00 0.00 0.00 0.00 0.00 0.00 0.00 0.00 0.00 0.00 0.00 0.00 0.00 0.00 0.00 0.00 0.00 0.00 0.00 0.00 0.00 0.00 0.00 0.00 0.00 0.00 0.00 0.00 0.00 0.00
MSLP
1020.82 1020.40 1020.06 1019.75 1019.49 1019.27 1019.08 1018.91 1018.69 1018.44 1018.31 1018.20 1018.13 1018.01 1017.88 1017.72 1017.51 1017.21 1018.02 1018.82 1017.78 1016.76 1016.22 1015.92 1015.37 1015.29 1015.19 1015.56 1015.90 1016.70 1018.20 1019.69 1020.35 1020.64 1021.51 1022.36 1023.06 1024.83 1026.39 1026.98 1027.75 1028.91 1029.63 1030.51 1030.54
1020.93 1020.55 1020.17 1019.81 1019.50 1019.27 1019.07 1018.90 1018.70 1018.55 1018.39 1018.24 1018.22 1018.17 1018.03 1017.87 1017.79 1018.18 1019.01 1018.16 1017.41 1016.61 1016.24 1016.25 1016.05 1015.85 1015.95 1016.18 1016.65 1017.53 1019.18 1020.26 1021.00 1021.43 1022.43 1023.59 1024.20 1025.23 1026.78 1027.71 1029.01 1029.83 1030.50 1030.83 1030.83
1021.01 1020.62 1020.16 1019.81 1019.48 1019.26 1019.11 1018.94 1018.73 1018.55 1018.41 1018.34 1018.30 1018.17 1017.95 1017.78 1018.28 1019.39 1018.86 1018.21 1017.41 1016.74 1016.43 1016.34 1016.33 1016.41 1016.63 1016.92 1017.56 1018.77 1020.14 1021.04 1021.81 1022.00 1022.85 1024.15 1025.31 1026.14 1027.20 1028.80 1029.59 1030.45 1031.03 1031.25 1031.18
1021.04 1020.68 1020.29 1019.89 1019.58 1019.33 1019.14 1018.96 1018.80 1018.61 1018.44 1018.39 1018.36 1018.18 1017.94 1017.94 1019.86 1020.01 1019.33 1018.48 1017.66 1017.07 1016.52 1016.72 1016.74 1017.06 1017.59 1018.07 1018.45 1019.87 1021.11 1021.52 1022.31 1022.83 1023.42 1024.87 1026.10 1027.49 1028.08 1029.59 1030.28 1030.91 1031.50 1031.73 1031.77
1021.29 1020.97 1020.57 1020.15 1019.84 1019.59 1019.28 1019.03 1018.80 1018.63 1018.49 1018.47 1018.39 1018.22 1018.13 1019.42 1020.84 1020.38 1019.58 1018.78 1017.87 1017.57 1017.82 1017.79 1017.87 1018.12 1018.44 1018.73 1019.27 1020.36 1021.75 1022.46 1023.19 1023.47 1024.58 1025.52 1026.93 1028.13 1029.49 1030.03 1030.47 1031.08 1031.56 1031.91 1032.16
1021.54 1021.21 1020.86 1020.53 1020.15 1019.83 1019.51 1019.24 1019.03 1018.85 1018.72 1018.56 1018.33 1018.18 1018.58 1020.21 1020.75 1020.48 1019.78 1019.01 1018.77 1018.60 1018.77 1018.64 1019.00 1018.91 1019.20 1019.67 1020.09 1020.94 1021.85 1022.91 1023.61 1024.36 1025.20 1026.44 1027.90 1028.14 1030.09 1030.18 1030.94 1031.41 1032.00 1032.32 1032.51
1021.72 1021.39 1021.12 1020.82 1020.49 1020.11 1019.70 1019.38 1019.11 1018.97 1018.85 1018.69 1018.45 1018.57 1019.74 1020.94 1020.73 1020.47 1020.00 1019.53 1019.38 1019.19 1019.14 1019.18 1019.23 1019.35 1020.00 1020.68 1021.20 1021.88 1022.90 1023.42 1024.08 1024.57 1025.69 1026.29 1027.95 1029.27 1029.89 1030.50 1031.40 1031.92 1032.70 1032.95 1033.04
1021.95 1021.52 1021.20 1020.91 1020.50 1020.13 1019.81 1019.45 1019.16 1018.92 1018.79 1018.71 1018.63 1019.05 1020.51 1020.47 1020.57 1020.54 1020.19 1019.61 1019.26 1019.13 1019.20 1019.24 1019.30 1020.11 1021.24 1021.56 1021.88 1022.60 1023.41 1024.33 1024.77 1024.95 1025.65 1026.09 1027.90 1029.38 1030.03 1030.78 1031.86 1032.51 1033.23 1033.46 1033.57
1022.10 1021.70 1021.31 1020.90 1020.53 1020.18 1019.87 1019.46 1019.10 1018.67 1018.69 1018.48 1018.90 1019.43 1020.91 1020.63 1020.90 1020.99 1020.88 1020.58 1019.99 1019.53 1019.49 1019.36 1020.29 1022.66 1023.08 1023.57 1023.85 1024.31 1024.71 1025.20 1025.53 1025.65 1025.98 1026.58 1028.31 1029.69 1030.82 1031.72 1032.95 1033.52 1033.66 1033.74 1033.94
1022.33 1021.91 1021.51 1021.07 1020.67 1020.29 1019.94 1019.76 1019.41 1018.86 1018.98 1018.83 1019.60 1020.61 1021.34 1021.99 1021.83 1021.77 1021.16 1020.88 1020.45 1020.17 1020.49 1021.30 1022.81 1024.48 1025.70 1025.56 1025.89 1025.87 1025.95 1026.09 1026.27 1026.96 1026.89 1027.44 1028.93 1030.32 1031.54 1032.32 1033.65 1034.29 1034.70 1034.72 1034.49
1022.49 1021.99 1021.53 1021.01 1020.57 1020.31 1020.11 1019.94 1020.47 1020.51 1020.95 1021.47 1021.76 1022.05 1022.33 1022.32 1021.99 1022.13 1021.74 1021.30 1021.26 1021.77 1022.98 1023.73 1024.91 1026.57 1027.20 1027.15 1027.03 1026.94 1027.05 1027.19 1027.25 1027.93 1028.03 1028.47 1029.84 1031.08 1032.34 1033.21 1034.15 1034.71 1035.11 1035.12 1035.23
1022.74 1022.10 1021.54 1021.05 1020.72 1020.44 1020.47 1021.13 1021.62 1021.98 1022.37 1022.43 1022.48 1022.61 1022.74 1022.79 1022.73 1022.75 1022.26 1022.51 1022.96 1023.89 1024.29 1025.21 1026.56 1027.19 1027.35 1027.40 1027.42 1027.55 1027.80 1028.12 1028.07 1028.45 1029.07 1029.48 1030.42 1031.69 1033.01 1033.87 1034.43 1034.96 1035.35 1035.41 1035.09
1023.05 1022.31 1021.60 1021.10 1020.74 1020.87 1021.34 1021.74 1021.71 1021.58 1022.21 1022.86 1022.96 1023.01 1023.20 1023.31 1023.99 1023.93 1023.68 1023.73 1024.50 1025.24 1025.64 1026.14 1027.12 1027.12 1027.49 1028.03 1028.09 1028.42 1028.83 1029.32 1029.84 1029.59 1029.56 1030.07 1031.32 1032.80 1034.01 1034.69 1035.08 1035.57 1035.77 1035.84 1035.52
1023.23 1022.71 1021.96 1021.16 1021.24 1021.55 1021.86 1021.78 1021.65 1021.66 1022.43 1022.96 1022.99 1023.17 1023.37 1023.55 1024.26 1024.20 1024.16 1024.59 1025.30 1026.50 1026.89 1027.50 1027.76 1027.77 1028.07 1028.64 1029.04 1029.13 1029.32 1029.93 1030.38 1030.91 1031.22 1031.28 1032.41 1033.44 1034.62 1035.63 1036.19 1036.35 1036.35 1036.21 1035.58
1023.30 1022.71 1022.25 1021.60 1021.83 1022.11 1022.52 1022.17 1021.84 1021.89 1022.65 1022.87 1023.00 1023.21 1023.60 1024.11 1024.88 1024.71 1024.79 1024.77 1025.95 1026.96 1027.54 1028.74 1028.63 1028.74 1028.89 1029.23 1029.55 1029.78 1029.99 1030.40 1030.88 1031.71 1032.38 1032.47 1034.38 1033.70 1035.44 1036.67 1036.99 1037.31 1036.83 1036.44 1035.65
1023.05 1022.83 1022.44 1022.27 1022.64 1022.75 1022.55 1022.30 1022.24 1022.63 1022.33 1022.63 1023.03 1023.42 1024.02 1024.45 1024.86 1025.03 1025.29 1025.62 1026.37 1027.06 1027.82 1028.68 1028.97 1029.26 1029.38 1029.56 1029.91 1030.15 1030.39 1030.82 1031.63 1032.55 1033.29 1033.09 1034.70 1035.02 1036.39 1036.89 1037.55 1037.47 1037.10 1036.44 1035.61
1023.17 1022.61 1022.65 1022.91 1023.59 1023.31 1022.73 1022.84 1023.19 1022.52 1022.51 1023.00 1023.36 1023.68 1024.28 1024.95 1025.32 1025.86 1026.54 1027.12 1027.59 1028.08 1028.73 1029.16 1029.42 1029.75 1030.07 1030.46 1030.71 1030.97 1031.63 1032.40 1033.12 1033.84 1033.58 1034.04 1035.58 1035.36 1036.46 1037.28 1037.37 1037.21 1036.82 1036.27 1035.56
1022.90 1022.95 1022.93 1023.14 1023.34 1023.09 1023.42 1023.35 1023.44 1022.11 1022.47 1022.93 1023.51 1024.14 1024.75 1025.43 1025.97 1026.52 1027.41 1028.30 1028.64 1028.82 1029.55 1029.95 1029.88 1030.38 1030.34 1030.76 1031.36 1031.90 1032.65 1033.90 1035.12 1035.65 1035.32 1035.29 1036.01 1035.93 1036.90 1037.21 1037.21 1036.86 1036.36 1035.84 1035.31
1022.70 1022.83 1023.02 1023.13 1023.02 1023.45 1023.70 1024.32 1023.04 1022.92 1022.99 1023.32 1023.93 1024.37 1025.01 1025.64 1026.37 1026.83 1027.49 1028.35 1029.02 1029.43 1029.80 1030.27 1030.36 1030.38 1030.63 1030.82 1031.45 1032.15 1032.96 1034.09 1035.62 1036.99 1037.53 1036.36 1036.43 1036.84 1036.87 1037.04 1036.96 1036.55 1036.00 1035.56 1035.04
1023.26 1023.28 1023.25 1023.05 1023.10 1023.28 1024.41 1024.34 1024.00 1024.30 1024.57 1024.43 1024.22 1024.49 1025.02 1025.66 1026.45 1026.91 1027.59 1028.51 1029.12 1029.35 1029.49 1030.13 1030.68 1030.74 1031.02 1031.25 1031.68 1032.12 1033.13 1034.53 1036.42 1037.96 1038.47 1037.51 1038.05 1037.19 1037.59 1037.23 1036.89 1036.52 1036.08 1035.49 1034.89
1023.51 1023.64 1023.33 1023.25 1023.47 1023.89 1024.67 1024.58 1024.69 1025.00 1025.04 1025.40 1025.55 1025.42 1025.57 1025.92 1026.38 1027.18 1027.56 1028.47 1029.03 1029.89 1030.18 1030.66 1031.19 1031.63 1031.60 1031.71 1031.75 1032.73 1033.36 1034.47 1036.01 1037.72 1039.22 1039.53 1037.27 1036.46 1037.13 1036.81 1036.68 1036.10 1035.74 1035.31 1034.65
1024.25 1024.35 1023.67 1023.57 1024.39 1024.73 1025.01 1024.65 1024.62 1025.12 1025.47 1025.59 1025.79 1026.00 1026.27 1026.62 1027.26 1027.83 1028.15 1028.69 1029.20 1029.70 1030.75 1031.01 1031.94 1032.18 1031.80 1031.93 1032.04 1032.46 1033.29 1034.40 1036.03 1037.25 1038.46 1039.09 1036.77 1035.71 1036.10 1035.77 1035.74 1035.75 1035.19 1034.60 1034.04
1024.78 1024.50 1023.91 1023.83 1024.58 1025.13 1025.28 1025.35 1025.50 1025.39 1025.57 1025.76 1025.86 1025.71 1026.33 1027.00 1027.55 1027.80 1028.41 1028.92 1029.38 1030.07 1030.60 1031.29 1032.15 1032.55 1032.45 1032.99 1032.88 1032.69 1032.94 1033.87 1034.84 1035.99 1036.80 1038.23 1035.62 1034.70 1035.18 1035.27 1035.07 1035.11 1034.75 1034.27 1033.61
1025.88 1025.41 1024.31 1024.15 1024.68 1024.88 1025.47 1025.36 1025.64 1025.71 1025.84 1025.84 1025.90 1026.24 1026.55 1026.91 1027.43 1027.85 1028.58 1029.27 1029.60 1030.20 1030.39 1031.06 1032.13 1032.28 1032.15 1032.07 1032.44 1032.85 1032.71 1033.45 1034.13 1035.14 1035.00 1034.72 1033.85 1034.19 1034.40 1034.54 1034.55 1034.47 1034.21 1033.84 1033.26
1025.57 1025.41 1025.63 1025.02 1024.50 1025.13 1025.94 1025.86 1025.61 1025.79 1026.05 1026.18 1026.32 1026.14 1026.35 1027.06 1027.54 1028.11 1028.84 1029.63 1030.14 1030.16 1030.82 1031.64 1032.19 1032.25 1031.99 1031.92 1032.17 1032.16 1032.16 1032.69 1033.13 1032.97 1033.75 1032.62 1033.44 1033.01 1033.44 1033.97 1034.11 1034.03 1033.85 1033.41 1033.04
1024.86 1025.49 1025.57 1025.32 1025.13 1025.28 1025.45 1025.58 1025.71 1025.62 1026.03 1026.24 1026.19 1025.67 1026.30 1026.59 1026.76 1027.59 1028.47 1029.32 1029.71 1030.73 1031.23 1032.03 1032.16 1032.36 1032.00 1031.48 1031.76 1031.59 1031.24 1031.54 1031.67 1031.96 1032.04 1032.35 1032.54 1032.59 1033.11 1033.57 1033.92 1033.83 1033.50 1033.28 1032.94
1024.57 1024.61 1024.55 1024.84 1025.06 1024.94 1024.76 1024.84 1025.19 1025.64 1025.62 1025.91 1025.73 1026.15 1026.65 1026.75 1027.19 1027.80 1028.23 1028.69 1029.19 1030.28 1031.23 1031.99 1032.62 1033.06 1032.35 1032.05 1032.04 1031.33 1030.55 1030.49 1030.63 1030.76 1031.27 1032.28 1032.32 1032.96 1033.26 1033.56 1033.70 1033.45 1033.53 1033.40 1032.79
Thickness
5690 5693 5694 5695 5695 5696 5696 5696 5696 5697 5696 5696 5694 5693 5692 5692 5692 5693 5681 5675 5682 5688 5691 5693 5695 5693 5693 5688 5686 5676 5649 5639 5636 5641 5636 5627 5627 5607 5589 5581 5574 5565 5558 5550 5549
5689 5691 5692 5693 5694 5695 5695 5694 5694 5693 5693 5693 5691 5690 5689 5689 5688 5681 5674 5678 5683 5688 5689 5685 5683 5684 5678 5680 5674 5660 5640 5638 5633 5631 5618 5602 5606 5602 5581 5573 5561 5550 5543 5540 5539
5687 5689 5691 5693 5693 5693 5693 5693 5692 5691 5691 5690 5689 5688 5687 5687 5680 5668 5673 5676 5681 5685 5687 5685 5682 5678 5672 5671 5664 5648 5635 5628 5623 5624 5616 5597 5584 5581 5571 5553 5547 5538 5532 5528 5526
5686 5688 5690 5691 5692 5692 5691 5690 5690 5690 5690 5688 5686 5685 5686 5685 5671 5662 5666 5671 5676 5679 5682 5677 5674 5667 5656 5654 5654 5632 5625 5625 5615 5608 5609 5591 5573 5554 5552 5539 5535 5528 5523 5518 5514
5684 5685 5686 5688 5688 5688 5689 5688 5688 5688 5687 5685 5683 5682 5681 5662 5653 5657 5662 5667 5672 5672 5665 5663 5658 5655 5648 5647 5643 5627 5617 5609 5599 5593 5581 5574 5556 5543 5531 5528 5525 5520 5514 5507 5501
5680 5681 5682 5682 5683 5684 5685 5686 5685 5684 5683 5681 5680 5679 5673 5656 5653 5654 5659 5662 5661 5660 5654 5652 5647 5646 5642 5635 5631 5622 5612 5600 5594 5584 5574 5557 5543 5545 5522 5521 5514 5507 5498 5491 5485
5677 5678 5678 5678 5678 5679 5681 5682 5682 5681 5679 5677 5676 5673 5657 5648 5650 5651 5653 5654 5652 5652 5649 5646 5642 5642 5632 5625 5618 5608 5596 5594 5586 5582 5563 5554 5538 5518 5516 5512 5500 5494 5481 5473 5468
5674 5675 5675 5675 5676 5677 5678 5678 5678 5678 5676 5674 5672 5666 5647 5650 5648 5647 5648 5650 5650 5650 5646 5642 5639 5629 5616 5615 5612 5605 5591 5579 5573 5572 5558 5558 5542 5512 5507 5499 5485 5477 5463 5455 5448
5670 5672 5673 5673 5674 5674 5674 5675 5675 5676 5673 5673 5667 5660 5644 5646 5641 5640 5640 5639 5639 5642 5639 5638 5624 5595 5589 5586 5583 5566 5577 5573 5563 5554 5552 5549 5517 5502 5490 5479 5463 5452 5445 5439 5429
5665 5666 5668 5669 5670 5671 5671 5669 5669 5672 5668 5666 5658 5650 5638 5629 5630 5629 5632 5632 5635 5634 5627 5613 5590 5569 5549 5557 5582 5545 5555 5548 5551 5531 5527 5526 5500 5485 5473 5462 5442 5430 5420 5414 5409
5660 5662 5663 5665 5667 5666 5666 5663 5656 5652 5644 5634 5633 5630 5627 5626 5627 5623 5624 5624 5623 5610 5597 5583 5566 5547 5545 5542 5544 5543 5539 5530 5525 5512 5507 5505 5478 5471 5454 5441 5424 5412 5402 5396 5388
5654 5658 5660 5661 5662 5662 5659 5649 5643 5641 5625 5629 5626 5623 5622 5619 5615 5612 5614 5610 5598 5584 5584 5567 5547 5549 5545 5535 5533 5530 5525 5510 5505 5498 5490 5489 5476 5452 5439 5425 5412 5399 5388 5379 5370
5646 5651 5655 5656 5657 5654 5647 5641 5640 5638 5627 5622 5617 5614 5611 5609 5596 5594 5596 5595 5580 5564 5555 5561 5545 5548 5540 5516 5519 5509 5504 5488 5479 5475 5473 5470 5449 5428 5417 5404 5395 5380 5370 5358 5346
5639 5641 5645 5650 5646 5643 5638 5637 5636 5634 5622 5623 5614 5608 5605 5600 5591 5591 5586 5583 5570 5549 5544 5536 5534 5536 5521 5509 5498 5497 5488 5479 5470 5454 5455 5455 5431 5410 5397 5383 5372 5358 5342 5330 5324
5633 5636 5637 5639 5637 5633 5629 5629 5630 5627 5611 5616 5608 5603 5596 5589 5576 5580 5574 5572 5556 5544 5541 5522 5515 5511 5506 5498 5488 5487 5474 5460 5452 5436 5429 5432 5397 5392 5383 5366 5337 5319 5317 5309 5298
5630 5629 5630 5629 5626 5624 5622 5621 5620 5614 5607 5607 5601 5597 5587 5577 5573 5570 5561 5555 5549 5538 5522 5509 5506 5496 5490 5485 5477 5469 5458 5449 5431 5420 5380 5417 5400 5364 5359 5337 5305 5301 5298 5291 5278
5624 5627 5622 5618 5612 5611 5615 5611 5604 5600 5611 5608 5594 5587 5575 5566 5565 5557 5539 5524 5531 5543 5522 5501 5491 5484 5477 5468 5460 5445 5430 5423 5411 5369 5414 5406 5380 5360 5316 5303 5300 5293 5283 5268 5255
5620 5617 5617 5611 5607 5608 5601 5605 5605 5622 5606 5588 5582 5575 5571 5555 5551 5542 5529 5514 5504 5504 5491 5494 5496 5466 5465 5453 5440 5430 5421 5394 5388 5372 5354 5362 5330 5337 5298 5283 5278 5272 5261 5256 5243
5615 5612 5608 5606 5603 5596 5593 5583 5605 5605 5591 5583 5573 5569 5564 5550 5541 5531 5518 5505 5493 5484 5496 5478 5476 5458 5452 5445 5433 5420 5405 5395 5342 5329 5314 5346 5337 5308 5305 5297 5278 5263 5261 5239 5228
5604 5602 5599 5598 5596 5591 5579 5589 5585 5566 5561 5562 5582 5569 5567 5543 5537 5528 5511 5496 5486 5481 5472 5457 5455 5446 5439 5433 5424 5415 5398 5367 5341 5323 5333 5291 5274 5287 5262 5269 5255 5235 5225 5218 5212
5593 5595 5593 5589 5585 5576 5575 5573 5561 5554 5552 5550 5549 5550 5543 5535 5526 5518 5510 5488 5480 5467 5459 5446 5432 5432 5426 5414 5405 5392 5374 5369 5345 5312 5265 5263 5265 5264 5262 5243 5238 5224 5214 5202 5197
5576 5582 5580 5578 5570 5547 5555 5560 5560 5547 5542 5537 5532 5529 5522 5511 5506 5496 5493 5482 5467 5458 5444 5436 5410 5397 5410 5404 5395 5385 5364 5349 5322 5293 5287 5247 5268 5255 5239 5227 5218 5211 5211 5204 5196
5565 5561 5567 5565 5561 5550 5540 5542 5539 5537 5533 5528 5523 5521 5512 5504 5500 5489 5476 5466 5457 5446 5431 5422 5397 5381 5397 5385 5359 5356 5362 5348 5331 5305 5294 5242 5252 5255 5226 5233 5226 5210 5197 5193 5188
5539 5548 5557 5549 5538 5546 5530 5534 5531 5521 5520 5519 5514 5508 5500 5493 5485 5480 5461 5453 5446 5438 5440 5424 5396 5392 5400 5385 5369 5358 5358 5332 5316 5285 5283 5293 5294 5278 5236 5227 5211 5197 5187 5181 5180
5525 5532 5525 5544 5546 5531 5517 5519 5518 5514 5503 5501 5498 5496 5494 5481 5472 5464 5450 5437 5431 5431 5417 5404 5383 5375 5379 5368 5358 5356 5354 5330 5315 5309 5278 5305 5260 5266 5238 5214 5198 5186 5181 5182 5175
5522 5516 5511 5509 5512 5514 5512 5511 5507 5502 5490 5487 5485 5489 5479 5479 5476 5458 5444 5428 5424 5409 5397 5385 5380 5374 5370 5369 5360 5349 5349 5330 5320 5311 5287 5270 5259 5240 5221 5198 5188 5173 5176 5172 5168
5505 5505 5511 5509 5497 5502 5505 5508 5502 5492 5489 5484 5479 5472 5466 5465 5455 5441 5434 5425 5419 5401 5384 5370 5362 5347 5347 5354 5342 5327 5324 5332 5307 5303 5286 5254 5240 5220 5205 5193 5179 5174 5166 5160 5162